TimeEST,TemperatureF,Dew PointF,Humidity,Sea Level PressureIn,VisibilityMPH,Wind Direction,Wind SpeedMPH,Gust SpeedMPH,PrecipitationIn,Events,Conditions,WindDirDegrees,DateUTC
12:15 AM,29.1,23.4,79,30.32,5.0,WNW,8.1,-,N/A,,Haze,290,2013-01-07 05:15:00
12:35 AM,28.9,23.7,81,30.32,5.0,WNW,6.9,-,N/A,,Haze,300,2013-01-07 05:35:00
12:55 AM,28.9,23.9,81,30.32,5.0,WNW,4.6,-,N/A,,Haze,300,2013-01-07 05:55:00
1:15 AM,29.1,23.9,81,30.33,5.0,WNW,9.2,-,N/A,,Haze,290,2013-01-07 06:15:00
1:35 AM,29.1,24.1,81,30.34,5.0,West,5.8,-,N/A,,Haze,280,2013-01-07 06:35:00
1:55 AM,29.1,23.9,81,30.34,5.0,West,4.6,-,N/A,,Haze,280,2013-01-07 06:55:00
2:15 AM,29.1,24.3,82,30.35,5.0,West,4.6,-,N/A,,Haze,280,2013-01-07 07:15:00
2:35 AM,29.3,24.3,81,30.35,5.0,West,4.6,-,N/A,,Haze,260,2013-01-07 07:35:00
2:55 AM,29.3,24.3,81,30.36,5.0,West,5.8,-,N/A,,Haze,270,2013-01-07 07:55:00
3:15 AM,29.3,24.4,82,30.36,5.0,West,3.5,-,N/A,,Haze,260,2013-01-07 08:15:00
3:35 AM,29.1,24.3,82,30.37,5.0,Calm,Calm,-,N/A,,Haze,0,2013-01-07 08:35:00
3:55 AM,29.1,24.1,81,30.36,5.0,Calm,Calm,-,N/A,,Haze,0,2013-01-07 08:55:00
4:15 AM,29.3,24.4,82,30.36,5.0,WSW,3.5,-,N/A,,Haze,240,2013-01-07 09:15:00
4:35 AM,29.3,24.8,83,30.37,5.0,WSW,4.6,-,N/A,,Overcast,250,2013-01-07 09:35:00
4:55 AM,29.1,24.6,83,30.37,5.0,WSW,3.5,-,N/A,,Haze,240,2013-01-07 09:55:00
5:15 AM,29.1,24.8,84,30.38,5.0,West,3.5,-,N/A,,Overcast,260,2013-01-07 10:15:00
5:35 AM,29.1,24.4,83,30.38,5.0,West,3.5,-,N/A,,Haze,260,2013-01-07 10:35:00
5:55 AM,29.3,24.3,81,30.39,5.0,West,3.5,-,N/A,,Haze,280,2013-01-07 10:55:00
6:15 AM,29.1,24.6,83,30.39,5.0,West,3.5,-,N/A,,Haze,260,2013-01-07 11:15:00
6:55 AM,29.3,24.4,82,30.41,5.0,WSW,3.5,-,N/A,,Haze,250,2013-01-07 11:55:00
7:15 AM,29.3,24.4,82,30.42,5.0,WSW,4.6,-,N/A,,Haze,240,2013-01-07 12:15:00
7:35 AM,29.3,24.6,83,30.42,5.0,Calm,Calm,-,N/A,,Haze,0,2013-01-07 12:35:00
7:55 AM,29.3,24.8,83,30.43,5.0,Calm,Calm,-,N/A,,Overcast,0,2013-01-07 12:55:00
8:15 AM,29.3,24.6,83,30.44,5.0,Calm,Calm,-,N/A,,Overcast,0,2013-01-07 13:15:00
8:35 AM,29.3,24.8,83,30.46,5.0,Calm,Calm,-,N/A,,Overcast,0,2013-01-07 13:35:00
8:55 AM,29.8,25.0,82,30.47,5.0,Calm,Calm,-,N/A,,Haze,0,2013-01-07 13:55:00
9:35 AM,30.2,25.2,82,30.47,5.0,Calm,Calm,-,N/A,,Haze,0,2013-01-07 14:35:00
9:55 AM,30.6,25.3,81,30.48,5.0,Calm,Calm,-,N/A,,Haze,0,2013-01-07 14:55:00
10:15 AM,30.9,25.2,79,30.49,7.0,Calm,Calm,-,N/A,,Overcast,0,2013-01-07 15:15:00
10:35 AM,31.1,25.5,80,30.49,7.0,Calm,Calm,-,N/A,,Overcast,0,2013-01-07 15:35:00
10:55 AM,31.6,25.3,78,30.49,7.0,Calm,Calm,-,N/A,,Overcast,0,2013-01-07 15:55:00
11:15 AM,32.0,25.7,78,30.48,7.0,South,3.5,-,N/A,,Overcast,170,2013-01-07 16:15:00
11:35 AM,32.4,25.9,77,30.47,7.0,Calm,Calm,-,N/A,,Overcast,0,2013-01-07 16:35:00
11:55 AM,33.1,25.9,75,30.46,7.0,Calm,Calm,-,N/A,,Overcast,0,2013-01-07 16:55:00
12:15 PM,33.8,25.7,72,30.44,10.0,Calm,Calm,-,N/A,,Overcast,0,2013-01-07 17:15:00
12:35 PM,33.8,23.9,67,30.43,10.0,Calm,Calm,-,N/A,,Overcast,0,2013-01-07 17:35:00
12:55 PM,34.0,23.9,67,30.42,10.0,SE,4.6,-,N/A,,Overcast,130,2013-01-07 17:55:00
1:15 PM,34.7,23.9,65,30.41,10.0,SSE,6.9,-,N/A,,Overcast,160,2013-01-07 18:15:00
1:35 PM,34.2,23.5,65,30.40,10.0,ESE,3.5,-,N/A,,Mostly Cloudy,110,2013-01-07 18:35:00
1:55 PM,36.3,23.9,61,30.40,10.0,SSE,5.8,-,N/A,,Overcast,150,2013-01-07 18:55:00
2:15 PM,34.7,23.7,64,30.39,10.0,ESE,4.6,-,N/A,,Mostly Cloudy,120,2013-01-07 19:15:00
2:35 PM,36.0,24.3,63,30.39,10.0,Calm,Calm,-,N/A,,Scattered Clouds,0,2013-01-07 19:35:00
2:55 PM,36.7,24.8,62,30.39,10.0,Calm,Calm,-,N/A,,Clear,0,2013-01-07 19:55:00
3:15 PM,36.5,24.4,62,30.38,10.0,ESE,3.5,-,N/A,,Clear,120,2013-01-07 20:15:00
3:35 PM,36.5,24.4,62,30.38,10.0,SE,6.9,-,N/A,,Clear,140,2013-01-07 20:35:00
4:15 PM,36.5,24.6,62,30.38,10.0,SSE,3.5,-,N/A,,Clear,160,2013-01-07 21:15:00
4:35 PM,36.0,24.4,63,30.37,10.0,SE,5.8,-,N/A,,Clear,130,2013-01-07 21:35:00
4:55 PM,35.8,24.4,63,30.37,10.0,SE,5.8,-,N/A,,Clear,130,2013-01-07 21:55:00
5:35 PM,34.5,24.1,66,30.37,10.0,Calm,Calm,-,N/A,,Clear,0,2013-01-07 22:35:00
5:55 PM,33.4,24.3,69,30.36,10.0,Calm,Calm,-,N/A,,Clear,0,2013-01-07 22:55:00
6:15 PM,31.1,24.3,76,30.36,10.0,Calm,Calm,-,N/A,,Clear,0,2013-01-07 23:15:00
6:35 PM,29.8,23.9,79,30.35,10.0,Calm,Calm,-,N/A,,Clear,0,2013-01-07 23:35:00
6:55 PM,29.5,24.1,80,30.34,10.0,Calm,Calm,-,N/A,,Clear,0,2013-01-07 23:55:00
7:55 PM,26.6,23.2,87,30.35,10.0,Calm,Calm,-,N/A,,Clear,0,2013-01-08 00:55:00
8:15 PM,25.7,22.3,87,30.34,10.0,Calm,Calm,-,N/A,,Clear,0,2013-01-08 01:15:00
8:35 PM,25.7,23.0,89,30.33,7.0,Calm,Calm,-,N/A,,Clear,0,2013-01-08 01:35:00
8:55 PM,24.8,22.5,91,30.32,7.0,Calm,Calm,-,N/A,,Clear,0,2013-01-08 01:55:00
9:35 PM,23.0,20.7,91,30.30,7.0,Calm,Calm,-,N/A,,Clear,0,2013-01-08 02:35:00
10:15 PM,23.7,21.4,91,30.29,7.0,Calm,Calm,-,N/A,,Clear,0,2013-01-08 03:15:00
10:35 PM,23.0,20.7,91,30.28,5.0,Calm,Calm,-,N/A,,Clear,0,2013-01-08 03:35:00
10:55 PM,22.5,20.3,91,30.27,7.0,Calm,Calm,-,N/A,,Clear,0,2013-01-08 03:55:00
11:15 PM,21.7,19.6,91,30.27,5.0,Calm,Calm,-,N/A,,Clear,0,2013-01-08 04:15:00
11:35 PM,22.1,20.1,92,30.26,5.0,Calm,Calm,-,N/A,,Clear,0,2013-01-08 04:35:00
11:55 PM,21.6,19.8,93,30.26,5.0,Calm,Calm,-,N/A,,Clear,0,2013-01-08 04:55:00